This demonstration page uses our WeatherBlox Daily Observations layout. Learn more.

Left ArrowRight Arrow

41.86663, -103.66717

Hourly Observations for September 21, 2015

Temp ( °F °C ) Dew Point ( °F °C ) Humidity (%) Winds ( mph kmh ) Pressure ( in mb ) Visibility ( mi km ) Precip ( " mm )
12:53 am 00:53 Clear 51 10.6 42 5.6 71 71 E 7 11 29.86 1011 10 16 N/A
1:53 am 01:53 Clear 51 10.6 42 5.6 71 71 E 8 13 29.85 1011 10 16 N/A
2:53 am 02:53 Clear 49 9.4 42 5.6 77 77 N N/A 29.84 1011 10 16 N/A
3:53 am 03:53 Clear 49 9.4 41 5 74 74 NNE 3 6 29.84 1011 10 16 N/A
4:53 am 04:53 Clear 47 8.3 40 4.4 77 77 N 6 9 29.85 1011 10 16 N/A
5:53 am 05:53 Clear 44 6.7 40 4.4 85 85 N N/A 29.87 1012 10 16 N/A
6:53 am 06:53 Sunny 44 6.7 40 4.4 85 85 N 6 9 29.90 1012 10 16 N/A
7:53 am 07:53 Sunny 51 10.6 43 6.1 74 74 N N/A 29.92 1013 10 16 N/A
8:53 am 08:53 Sunny 60 15.6 43 6.1 53 53 NW 8 13 29.89 1012 10 16 N/A
9:53 am 09:53 Sunny 74 23.3 41 5 31 31 W 12 19 29.87 1011 10 16 N/A
10:53 am 10:53 Sunny 79 26.1 41 5 26 26 NW 8 13 29.86 1011 10 16 N/A
11:53 am 11:53 Sunny 83 28.3 35 1.7 18 18 W 15 24 29.84 1011 10 16 N/A
12:53 pm 12:53 Sunny 85 29.4 35 1.7 17 17 NW 13 20 29.82 1010 10 16 N/A
1:53 pm 13:53 Sunny 88 31.1 34 1.1 15 15 NW 12 19 29.79 1009 10 16 N/A
2:53 pm 14:53 Sunny 88 31.1 31 -0.6 13 13 WNW 13 20 29.78 1009 10 16 N/A
3:53 pm 15:53 Sunny 88 31.1 31 -0.6 13 13 WNW 10 17 29.78 1009 10 16 N/A
4:53 pm 16:53 Sunny 88 31.1 31 -0.6 13 13 W 7 11 29.79 1009 10 16 N/A
5:53 pm 17:53 Sunny 87 30.6 41 5 20 20 N N/A 29.80 1009 10 16 N/A
6:53 pm 18:53 Sunny 74 23.3 48 8.9 40 40 N N/A 29.84 1011 10 16 N/A
7:53 pm 19:53 Clear 65 18.3 45 7.2 49 49 E 8 13 29.87 1011 10 16 N/A
8:53 pm 20:53 Clear 60 15.6 46 7.8 60 60 ESE 5 7 29.88 1012 10 16 N/A
9:53 pm 21:53 Clear 59 15 44 6.7 58 58 ENE 7 11 29.88 1012 10 16 N/A
10:53 pm 22:53 Clear 57 13.9 44 6.7 62 62 NE 6 9 29.87 1012 10 16 N/A
11:53 pm 23:53 Clear 56 13.3 45 7.2 67 67 VRB 3 6 29.86 1011 10 16 N/A

Powered by AerisWeather